Regional Weather Roundup
Issued by NWS Midland/Odessa, TX

Skip options and go directly to product.
Home | Oldest Version | Previous Version | Current Version | All | Text Only | Save Text | Print | Product List | Glossary On

Skip product version selection by date and time.   
524
ASUS44 KMAF 041710
RWRMAF
MIDLAND AREA WEATHER ROUNDUP
NATIONAL WEATHER SERVICE MIDLAND TX
1200 PM CDT MON MAY 04 2015

...IN SOUTHWEST TEXAS AND SOUTHEAST NEW MEXICO...

CITY           SKY/WX    TMP DP  RH WIND       PRES   REMARKS
ALPINE         MOSUNNY   74  56  53 S17       30.07S
ANDREWS        PTSUNNY   76  57  53 S16G23    30.02S
ARTESIA        MOSUNNY   73  50  43 NE8G14    30.01S
BIG SPRING     PTSUNNY   79  60  52 SE15G21   30.05S
CARLSBAD       MOSUNNY   76  55  48 SE9       29.98S
DRYDEN           N/A     76  65  68 E22G29    29.96S
FORT STOCKTON  CLOUDY    73  59  61 SE21G26   29.98R
GUAD PASS      MOSUNNY   69  54  58 NE33G40   30.03F
HOBBS          SUNNY     72  59  64 SE14G22   30.03S
MARFA          CLOUDY    70  54  56 SE15G22   30.05S
MIDLAND AIRPK  MOSUNNY   79  59  51 S21       30.03S
MIDLAND INTL   PTSUNNY   77  60  55 SE18      30.02S
ODESSA         PTSUNNY   76  58  53 SE22G29   30.02S
PECOS          SUNNY     80  59  47 E21G28    29.94F
PRESIDIO       FAIR      82  55  38 SE13G18   29.91S
SEMINOLE       PTSUNNY   74  60  61 SE12      30.04S
SNYDER         PTSUNNY   73  62  68 S10       30.07F
WINK           CLOUDY    75  58  55 SE16G23   29.97R
$$
...OTHER STATIONS IN TEXAS...

CITY           SKY/WX    TMP DP  RH WIND       PRES   REMARKS
ABILENE        MOSUNNY   76  62  62 SE16      30.07S
AMARILLO       PTSUNNY   74  53  48 SE16      30.06S
AUSTIN         PTSUNNY   78  65  63 SE15      30.08F
BROWNSVILLE    PTSUNNY   84  68  58 SE17G25   30.02R
CORPUS CHRISTI PTSUNNY   80  66  62 SE20G28   30.05R
DALLAS FTW     PTSUNNY   78  65  63 S12       30.11S
DEL RIO        CLOUDY    75  67  76 SE13G21   29.98R
EL PASO        MOSUNNY   79  47  32 NE9       29.93F
HOUSTON INT    MOSUNNY   80  60  50 SE10      30.13S
LUBBOCK        PTSUNNY   71  59  65 S16G24    30.06R
SAN ANGELO     PTSUNNY   78  61  55 S9G18     30.03R
SAN ANTONIO    PTSUNNY   80  66  62 SE14      30.07S
WACO           MOSUNNY   77  64  64 SE15      30.11S
WICHITA FALLS  NOT AVBL
$$
...OTHER LOCATIONS IN NEW MEXICO...

CITY           SKY/WX    TMP DP  RH WIND       PRES   REMARKS
ALAMAGORDO     PTSUNNY   72  46  40 CALM      29.97F
ALBUQUERQUE    MOSUNNY   70  38  31 VRB3      30.02F
CANNON AFB     NOT AVBL
CLOVIS         MOSUNNY   72  55  56 SE16G22   30.06S
HOLLOMAN AFB   MOSUNNY   74  46  35 VRB2      29.95F
ROSWELL        MOSUNNY   70  50  49 VRB7      30.02S
RUIDOSO        MOSUNNY   59  43  55 SE8       30.14S
SANTA FE       PTSUNNY   65  39  38 CALM      30.08F
TRUTH OR CONSE PTSUNNY   70  40  33 CALM      29.99F
TUCUMCARI      MOSUNNY   72  52  49 S9        30.03S
$$

USA.gov is the U.S. government's official web portal to all federal, state and local government web resources and services.